GW1299 Weather Reports


time (UTC)temp
C
wind
direction
speed
KPH
gust
KPH
rain 1hr
cm
rain 24hr
cm
rain mn
cm
humidity
%
barometer
mb
20260505100049 16 70 0.0 4.8 0.00 0.00 0.00 58 1011.5
20260505094541 16 37 0.0 3.2 0.00 0.00 0.00 59 1011.2
20260505093036 15 99 0.0 4.8 0.00 0.00 0.00 59 1011.3
20260505091547 16 93 0.0 6.4 0.00 0.00 0.00 59 1011.2
20260505090046 16 103 0.0 6.4 0.00 0.00 0.00 59 1011.2
20260505084535 15 95 1.6 4.8 0.00 0.00 0.00 60 1011.2
20260505083046 15 331 0.0 3.2 0.00 0.00 0.00 61 1011.2
20260505081540 15 88 0.0 3.2 0.00 0.00 0.00 62 1011.2
20260505080044 15 88 0.0 4.8 0.00 0.00 0.00 62 1011.2
20260505074532 15 142 0.0 4.8 0.00 0.00 0.00 62 1011.2
20260505073033 15 27 0.0 4.8 0.00 0.00 0.00 62 1011.2
20260505071539 15 68 0.0 3.2 0.00 0.00 0.00 62 1011.1
20260505070031 15 62 0.0 3.2 0.00 0.00 0.00 63 1011.0
20260505064529 15 78 0.0 3.2 0.00 0.00 0.00 63 1011.0
20260505063042 14 15 0.0 3.2 0.00 0.00 0.00 63 1011.1
20260505061533 15 107 0.0 3.2 0.00 0.00 0.00 62 1010.9
20260505060024 15 108 0.0 1.6 0.00 0.00 0.00 61 1011.0
20260505054534 15 108 0.0 3.2 0.00 0.00 0.00 61 1011.1
20260505053022 15 113 0.0 3.2 0.00 0.00 0.00 59 1011.2
20260505051535 15 115 0.0 3.2 0.00 0.00 0.00 61 1011.2
20260505041529 15 111 0.0 3.2 0.00 0.00 0.00 58 1011.2
20260505040014 16 111 0.0 0.0 0.00 0.00 0.00 57 1010.9
20260505034512 16 111 0.0 3.2 0.00 0.00 0.00 55 1011.0
20260505033011 16 91 0.0 0.0 0.00 0.00 0.00 54 1010.9
20260505031523 16 108 0.0 3.2 0.00 0.00 0.00 54 1010.8
20260505030009 17 88 0.0 3.2 0.00 0.00 0.00 54 1010.8
20260505024508 17 107 0.0 3.2 0.00 0.00 0.00 53 1010.8
20260505023008 17 104 0.0 3.2 0.00 0.00 0.00 53 1010.8
20260505021508 17 120 0.0 3.2 0.00 0.00 0.00 53 1010.8
20260505020007 17 121 1.6 3.2 0.00 0.00 0.00 54 1010.7
20260505014512 17 144 0.0 3.2 0.00 0.00 0.00 54 1010.5
20260505013006 17 141 0.0 3.2 0.00 0.00 0.00 54 1010.6
20260505011509 18 127 0.0 3.2 0.00 0.00 0.00 53 1010.5
20260505010012 18 116 0.0 3.2 0.00 0.00 0.00 53 1010.3
20260505004505 18 134 1.6 4.8 0.00 0.00 0.00 52 1010.1
20260505003004 18 125 0.0 3.2 0.00 0.00 0.00 52 1010.2
20260505001504 18 116 1.6 6.4 0.00 0.00 0.00 51 1010.1
20260505000005 19 135 1.6 4.8 0.00 0.00 0.00 48 1010.1
20260504234502 20 234 0.0 3.2 0.00 0.00 0.00 46 1010.1
20260504233002 21 122 0.0 6.4 0.00 0.00 0.00 44 1009.9
20260504231502 21 108 1.6 11.3 0.00 0.00 0.00 43 1009.9
20260504230002 21 97 3.2 9.7 0.00 0.00 0.00 42 1010.1
20260504224503 22 108 1.6 12.9 0.00 0.00 0.00 40 1010.0
20260504223110 22 110 4.8 14.5 0.00 0.00 0.00 39 1010.0
20260504221559 22 92 6.4 22.5 0.00 0.00 0.00 39 1009.8
20260504220101 22 91 4.8 19.3 0.00 0.00 0.00 39 1009.8
20260504214557 23 143 6.4 14.5 0.00 0.00 0.00 37 1009.9
20260504213101 24 76 1.6 8.0 0.00 0.00 0.00 35 1009.9
20260504211559 24 76 1.6 11.3 0.00 0.00 0.00 34 1009.9
20260504210101 24 109 0.0 6.4 0.00 0.00 0.00 34 1009.9
20260504204554 24 67 3.2 14.5 0.00 0.00 0.00 33 1010.0
20260504203050 24 101 1.6 9.7 0.00 0.00 0.00 34 1010.1
20260504201549 24 102 1.6 9.7 0.00 0.00 0.00 34 1010.3
20260504200057 24 269 0.0 8.0 0.00 0.00 0.00 35 1010.5
20260504194542 24 102 0.0 9.7 0.00 0.00 0.00 35 1010.7
20260504193044 24 228 3.2 8.0 0.00 0.00 0.00 35 1011.0
20260504191540 23 337 3.2 9.7 0.00 0.00 0.00 37 1011.2
20260504190037 24 93 3.2 9.7 0.00 0.00 0.00 36 1011.5
20260504184538 23 77 1.6 8.0 0.00 0.00 0.00 36 1011.8
20260504183036 23 110 1.6 8.0 0.00 0.00 0.00 37 1011.9
20260504181531 23 27 0.0 14.5 0.00 0.00 0.00 35 1012.0
20260504180028 23 245 1.6 8.0 0.00 0.00 0.00 34 1012.4
20260504174524 23 74 1.6 6.4 0.00 0.00 0.00 34 1012.5
20260504173023 23 108 1.6 8.0 0.00 0.00 0.00 34 1012.8
20260504171521 23 58 0.0 9.7 0.00 0.00 0.00 37 1012.9